Date,TemperatureHighF,TemperatureAvgF,TemperatureLowF,DewpointHighF,DewpointAvgF,DewpointLowF,HumidityHigh,HumidityAvg,HumidityLow,PressureMaxIn,PressureMinIn,WindSpeedMaxMPH,WindSpeedAvgMPH,GustSpeedMaxMPH,PrecipitationSumIn
2013-1-1,31.4,22.4,12.3,25.4,7.6,1.3,90,53,42,29.89,29.68,9,4,23,0.00
2013-1-2,21.8,13.3,-0.1,7.0,1.6,-4.9,91,61,44,30.03,29.85,8,3,19,0.00
2013-1-3,23.4,12.5,-0.6,5.7,1.6,-6.2,82,63,41,30.11,29.98,6,1,8,0.00
2013-1-4,33.1,25.6,0.1,25.6,19.8,-2.5,92,79,72,29.90,29.73,8,3,14,0.00
2013-1-5,34.6,28.3,13.8,25.5,15.2,9.5,85,59,44,30.28,29.86,10,4,17,0.00
2013-1-6,33.3,24.8,17.8,24.5,20.9,15.0,92,85,68,30.08,29.92,3,1,6,0.02
2013-1-7,26.2,19.1,11.6,17.0,13.6,9.3,93,79,63,30.42,30.15,10,3,16,0.00
2013-1-8,41.9,31.0,18.0,27.3,24.1,16.8,96,77,54,30.37,30.19,8,2,19,0.01
2013-1-9,38.7,30.8,12.4,35.2,27.4,11.0,97,87,77,30.42,29.88,6,1,10,0.00
2013-1-10,43.2,39.1,27.9,28.3,25.7,21.5,79,59,51,30.52,30.09,13,6,27,0.00
2013-1-11,36.5,30.5,17.4,30.6,23.2,16.1,96,75,54,30.55,30.27,4,1,7,0.00
2013-1-12,41.1,37.7,33.3,41.1,37.4,33.0,100,99,95,30.22,30.11,3,0,6,0.03
2013-1-13,45.7,40.7,35.7,45.7,40.7,35.6,100,100,100,30.16,29.96,6,2,11,0.01
2013-1-14,57.7,45.3,37.5,52.3,38.3,26.0,100,78,41,30.21,29.87,8,3,13,0.01
2013-1-15,38.0,33.0,25.5,27.6,24.8,21.4,90,72,59,30.33,30.25,4,1,7,0.00
2013-1-16,30.2,29.5,28.7,30.0,29.2,27.7,99,98,96,30.14,29.79,6,2,8,0.00
2013-1-17,39.7,28.1,15.9,35.6,19.4,1.4,100,72,42,30.15,29.81,9,4,14,0.28
2013-1-18,17.6,11.9,5.5,1.1,-3.7,-11.0,77,51,34,30.42,30.28,7,2,13,0.00
2013-1-19,39.1,33.4,29.4,31.5,24.6,17.6,88,70,59,30.15,29.92,8,2,21,0.00
2013-1-20,46.0,40.1,29.8,36.3,26.3,12.5,78,59,39,29.78,29.44,11,7,22,0.00
2013-1-21,25.4,21.1,13.2,15.4,4.9,-1.2,77,51,32,30.06,29.88,4,2,9,0.00
2013-1-22,16.7,12.2,8.7,11.5,4.1,-5.8,91,71,51,30.04,29.80,10,4,17,0.00
2013-1-23,6.5,3.0,-0.1,-12.2,-14.6,-16.1,55,43,37,30.11,30.05,9,4,17,0.00
2013-1-24,11.7,7.7,-2.1,-6.6,-9.8,-13.6,58,45,33,30.13,29.95,9,4,16,0.00
2013-1-25,19.9,14.3,4.7,5.2,-0.8,-4.6,74,52,35,30.22,30.08,7,2,16,0.00
2013-1-26,20.6,14.8,7.7,0.8,-2.3,-5.7,69,47,34,30.14,29.99,8,4,16,0.00
2013-1-27,24.2,16.8,8.0,3.0,-0.7,-4.2,67,46,35,30.43,30.21,9,4,19,0.00
2013-1-28,25.7,20.8,5.5,20.0,8.6,-5.3,95,65,27,30.41,30.09,5,1,7,0.00
2013-1-29,30.9,27.0,18.1,28.8,24.7,16.7,96,91,82,30.23,30.13,3,1,5,0.09
2013-1-30,51.3,46.6,40.0,51.3,46.6,40.0,100,100,99,29.97,29.47,10,6,19,0.28
2013-1-31,55.7,54.9,54.3,55.0,54.2,53.6,98,98,97,29.20,28.96,25,20,38,0.12
2013-2-1,28.9,24.0,16.7,11.0,6.8,3.0,55,48,38,30.03,29.68,8,4,21,0.00
2013-2-2,24.7,22.0,11.4,14.0,8.9,1.8,73,57,45,30.21,30.06,7,2,11,0.00
2013-2-3,27.0,25.1,20.9,19.0,16.8,14.7,91,71,61,30.01,29.71,11,6,15,0.00
2013-2-4,28.8,24.2,17.0,14.1,6.5,0.2,74,47,36,29.85,29.65,9,4,22,0.00
2013-2-5,25.4,16.5,3.8,9.8,2.3,-2.8,82,56,31,30.04,29.97,5,1,8,0.00
2013-2-6,36.2,26.7,17.4,24.8,14.7,-3.7,79,62,34,30.25,29.93,7,3,13,0.00
2013-2-7,20.1,14.2,8.3,-2.4,-7.4,-10.8,56,38,25,30.60,30.42,8,4,14,0.00
2013-2-8,16.3,12.4,9.4,14.8,9.3,-0.8,94,88,60,30.53,29.92,15,9,24,0.00
2013-2-9,11.1,10.8,10.6,9.2,8.9,8.7,92,92,92,29.71,29.68,24,21,43,0.00
2013-2-10,35.3,24.1,10.9,12.0,7.2,3.2,80,53,26,30.36,30.30,5,1,11,0.00
2013-2-11,39.5,28.0,7.1,39.5,26.4,5.3,100,94,76,30.24,29.61,6,1,8,0.35
2013-2-12,44.5,38.4,30.5,35.0,31.6,29.1,100,77,62,29.77,29.55,5,2,11,0.00
2013-2-13,44.3,36.2,28.4,28.9,26.6,23.6,91,70,47,29.82,29.74,4,1,10,0.00
2013-2-14,41.0,32.6,21.5,24.8,21.7,19.3,92,66,44,30.01,29.81,8,2,14,0.00
2013-2-15,43.9,34.8,19.5,37.7,31.4,18.5,98,88,72,29.99,29.91,9,3,17,0.00
2013-2-16,35.1,32.2,27.4,33.1,30.5,22.2,100,93,81,29.95,29.80,12,5,17,0.01
2013-2-17,22.4,20.9,19.0,20.7,14.3,6.3,94,76,56,29.48,29.18,13,10,27,0.00
2013-2-18,30.7,23.3,13.8,9.2,4.9,0.1,58,45,38,30.03,29.62,12,6,27,0.00
2013-2-19,42.2,35.9,23.3,41.9,23.0,3.3,99,63,28,30.11,29.64,8,3,14,0.25
2013-2-20,37.5,33.2,28.0,31.4,24.1,18.4,91,69,57,29.64,29.50,7,3,15,0.08
2013-2-21,31.9,26.1,21.2,25.2,16.6,10.2,79,67,55,30.11,29.71,9,5,18,0.00
2013-2-22,38.1,31.6,23.8,24.1,22.2,21.0,93,69,52,30.39,30.30,11,4,15,0.00
2013-2-23,37.9,32.8,26.0,33.5,30.3,22.6,98,91,73,30.31,30.04,8,2,11,0.02
2013-2-24,31.2,29.8,28.3,31.1,29.7,28.3,100,100,99,29.91,29.79,8,4,10,0.00
2013-2-25,37.7,30.8,22.9,32.3,28.8,22.3,100,93,74,30.24,30.03,7,2,12,0.28
2013-2-26,43.4,34.9,27.5,33.6,29.7,26.8,100,83,56,30.38,30.28,5,1,7,0.00
2013-2-27,38.1,34.1,31.4,33.7,32.3,31.2,100,93,82,30.16,29.72,11,6,17,0.04
2013-2-28,41.5,36.9,31.9,41.5,36.4,30.8,100,98,95,29.61,29.54,8,3,14,0.57
2013-3-1,33.8,32.7,31.7,32.5,31.1,29.7,99,94,87,29.68,29.57,10,5,15,0.01
2013-3-2,40.8,34.9,30.6,33.8,32.0,30.1,99,90,67,29.66,29.60,9,2,15,0.08
2013-3-3,41.5,37.6,32.1,35.6,32.2,28.7,100,82,70,29.61,29.53,5,2,9,0.09
2013-3-4,33.9,32.0,29.9,30.4,27.6,24.6,94,84,74,29.67,29.51,7,4,13,0.02
2013-3-5,43.6,38.9,34.5,34.8,34.0,32.7,94,83,69,30.11,29.87,12,7,17,0.00
2013-3-6,37.7,35.1,32.3,32.6,29.7,27.4,91,81,71,30.27,30.19,12,8,22,0.00
2013-3-7,36.2,34.1,32.0,27.5,26.3,25.5,80,73,67,30.19,30.09,14,11,22,0.00
2013-3-8,45.1,38.4,30.5,26.2,24.6,23.3,78,59,42,30.20,30.06,17,12,28,0.01
2013-3-9,46.7,36.9,26.1,26.6,24.7,22.9,90,63,40,30.38,30.23,12,6,20,0.00
2013-3-10,41.0,34.4,21.0,31.7,28.9,20.0,98,81,66,30.44,30.32,7,3,11,0.00
2013-3-11,41.7,39.5,36.2,40.4,37.0,34.1,96,91,84,30.27,30.16,10,6,16,0.00
2013-3-12,50.1,47.3,43.1,48.4,45.8,42.6,99,94,87,30.13,29.80,14,8,23,0.44
2013-3-13,49.2,43.1,31.9,46.5,36.8,28.7,100,79,62,29.74,29.66,8,3,11,0.02
2013-3-14,40.2,33.3,22.1,29.9,22.8,9.9,99,67,46,29.75,29.61,9,4,17,0.00
2013-3-15,35.1,27.7,17.1,20.5,13.0,6.4,84,55,35,29.81,29.61,7,3,14,0.01
2013-3-16,36.9,31.0,23.8,21.2,14.7,10.9,72,51,36,29.88,29.76,7,4,11,0.00
2013-3-17,31.6,26.0,16.1,16.6,6.4,1.1,89,44,33,30.32,29.95,10,5,21,0.00
2013-3-18,36.6,28.5,11.7,21.6,10.8,2.7,77,50,24,30.45,30.30,6,3,12,0.00
2013-3-19,30.8,27.6,23.0,30.0,26.9,22.5,99,97,95,30.16,29.68,11,7,23,0.05
2013-3-20,35.7,30.3,21.2,29.8,25.6,20.0,96,83,64,29.73,29.61,6,3,12,0.12
2013-3-21,39.4,31.3,22.7,23.4,20.0,16.6,93,65,42,29.78,29.62,7,2,12,0.02
2013-3-22,39.3,33.2,25.1,20.8,19.0,16.4,79,57,42,29.66,29.59,8,3,13,0.00
2013-3-23,41.1,34.7,21.9,25.1,22.5,16.6,80,62,47,29.66,29.49,10,5,23,0.00
2013-3-24,45.4,38.0,26.8,27.9,25.9,23.6,89,63,47,29.79,29.72,9,4,17,0.00
2013-3-25,43.2,37.1,27.7,32.5,29.3,25.9,94,74,58,29.76,29.60,11,4,15,0.00
2013-3-26,48.1,41.9,32.2,28.1,26.1,23.5,75,54,42,29.73,29.59,13,5,19,0.00
2013-3-27,45.2,40.6,31.9,38.4,34.1,25.5,98,79,56,29.87,29.73,9,4,19,0.10
2013-3-28,49.9,43.1,32.0,37.8,34.4,30.5,98,73,50,29.98,29.91,6,2,12,0.00
2013-3-29,54.7,48.1,33.8,39.0,33.3,28.9,91,58,43,30.01,29.94,8,3,20,0.00
2013-3-30,55.4,43.2,27.7,34.6,28.1,17.1,97,61,23,30.09,29.98,7,2,13,0.00
2013-3-31,50.7,42.3,21.7,38.9,29.0,19.1,96,63,30,30.13,29.89,12,5,21,0.00
2013-4-1,50.3,43.3,35.3,44.2,39.9,24.2,99,88,64,29.68,29.50,11,4,20,0.59
2013-4-2,37.9,32.9,25.9,20.1,15.6,10.6,77,50,34,29.84,29.72,8,4,20,0.00
2013-4-3,43.2,37.0,28.7,19.9,15.3,11.5,65,42,29,30.03,29.82,9,5,20,0.00
2013-4-4,50.1,41.3,29.5,36.1,21.1,9.2,80,47,22,30.22,29.99,11,6,17,0.00
2013-4-5,50.9,45.0,38.0,36.7,32.0,23.7,81,61,42,29.87,29.65,10,6,18,0.00
2013-4-6,39.9,33.2,26.5,15.7,9.3,4.7,58,38,25,30.35,29.99,11,6,19,0.00
2013-4-7,45.6,41.1,24.8,39.7,31.5,18.0,86,70,40,30.34,29.97,18,10,25,0.00
2013-4-8,58.2,50.6,39.1,40.7,36.5,33.9,97,60,43,30.15,29.97,11,4,22,0.00
2013-4-9,45.7,42.5,37.8,44.0,41.3,37.5,100,95,89,30.04,29.90,6,2,10,0.38
2013-4-10,54.6,45.7,40.6,48.2,44.1,40.6,100,94,76,30.00,29.90,5,1,8,0.26
2013-4-11,52.3,45.3,39.8,42.7,28.8,16.6,100,57,27,30.18,29.87,10,4,17,0.05
2013-4-12,37.0,34.4,32.6,33.0,27.4,16.6,99,78,49,30.28,29.91,7,3,11,0.27
2013-4-13,44.9,39.9,32.9,39.6,36.7,32.4,98,88,76,29.93,29.82,7,3,11,0.11
2013-4-14,50.6,43.1,34.9,43.2,39.2,34.4,100,87,57,30.18,29.93,8,1,12,0.08
2013-4-15,51.0,43.3,29.2,42.3,38.3,29.0,100,83,68,30.44,30.33,9,4,15,0.00
2013-4-16,49.7,46.7,39.1,46.9,41.9,38.4,98,84,68,30.40,29.97,17,9,25,0.02
2013-4-17,59.7,52.9,37.9,37.8,32.0,26.2,71,46,31,30.36,30.09,11,4,19,0.00
2013-4-18,49.6,43.6,27.9,38.5,32.2,24.1,97,66,40,30.50,30.20,10,5,16,0.00
2013-4-19,62.4,53.9,45.5,58.5,52.5,44.5,100,95,84,30.07,29.65,16,8,24,0.00
2013-4-20,56.0,51.2,43.7,53.4,38.7,26.7,100,66,41,30.14,29.61,8,3,18,0.28
2013-4-21,49.7,43.0,31.1,26.6,23.3,18.3,80,47,30,30.70,30.41,9,4,16,0.00
2013-4-22,48.3,40.7,26.0,35.5,27.2,17.7,95,62,31,30.83,30.69,9,4,14,0.00
2013-4-23,43.8,39.1,28.5,40.8,37.0,27.4,98,92,81,30.59,30.22,9,4,14,0.03
2013-4-24,62.0,50.5,42.5,53.3,47.4,42.1,99,90,72,30.00,29.79,10,6,17,0.05
2013-4-25,62.0,54.9,40.7,50.1,36.4,28.0,99,53,29,30.28,29.88,8,3,17,0.07
2013-4-26,55.2,49.0,35.1,37.7,33.8,30.8,92,58,42,30.45,30.40,8,4,12,0.00
2013-4-27,58.9,49.8,31.3,43.8,40.0,31.1,100,70,51,30.43,30.32,9,3,15,0.00
2013-4-28,63.2,52.5,32.5,45.7,37.3,30.4,100,61,32,30.36,30.26,9,3,14,0.00
2013-4-29,60.9,52.8,34.4,49.0,43.3,34.1,100,72,46,30.30,30.23,9,3,12,0.00
2013-4-30,65.3,54.4,33.8,48.1,37.6,26.7,100,58,27,30.39,30.31,8,3,13,0.00
2013-5-1,63.2,54.3,32.5,45.6,37.0,29.4,100,56,30,30.48,30.44,8,3,14,0.00
2013-5-2,61.8,50.8,37.2,50.8,41.2,33.8,100,72,45,30.53,30.42,10,3,16,0.00
2013-5-3,63.1,50.4,34.1,48.8,42.5,33.4,99,76,56,30.57,30.40,7,3,11,0.00
2013-5-4,60.7,48.4,36.0,45.4,40.3,35.7,100,75,48,30.42,30.34,9,4,15,0.00
2013-5-5,57.3,49.8,31.4,44.0,40.3,31.2,100,71,55,30.34,30.27,9,4,12,0.00
2013-5-6,60.0,49.5,32.6,49.2,44.4,32.4,100,84,63,30.30,30.19,10,4,15,0.00
2013-5-7,66.8,55.9,44.7,54.7,51.1,44.7,100,86,61,30.20,30.12,10,4,17,0.00
2013-5-8,71.2,62.8,49.0,63.5,58.4,49.0,100,86,72,30.26,30.16,10,4,16,0.05
2013-5-9,58.9,54.5,51.2,58.0,54.2,51.2,100,99,95,30.05,29.92,5,2,11,1.14
2013-5-10,68.8,57.9,50.2,62.5,55.5,50.2,100,92,75,29.99,29.92,6,2,10,0.00
2013-5-11,59.7,56.6,52.0,58.1,56.0,51.7,100,98,92,29.86,29.70,10,6,16,0.20
2013-5-12,65.3,57.8,52.5,60.2,55.3,44.8,100,92,74,29.72,29.54,6,2,12,0.05
2013-5-13,57.7,51.3,41.3,36.1,33.4,30.1,78,51,38,30.01,29.82,8,4,18,0.01
2013-5-14,55.7,50.8,42.5,42.9,34.8,29.9,86,56,41,30.04,29.95,9,4,18,0.00
2013-5-15,59.3,53.2,33.7,49.7,38.0,25.9,97,61,30,30.04,29.73,12,6,23,0.18
2013-5-16,77.7,64.7,49.4,57.8,48.2,40.3,100,60,29,29.79,29.57,8,4,14,0.00
2013-5-17,63.1,55.8,43.7,47.6,42.5,38.2,90,63,42,30.21,29.87,14,4,20,0.00
2013-5-18,60.0,52.4,38.9,47.6,44.1,38.6,100,75,57,30.36,30.28,9,4,13,0.00
2013-5-19,61.3,53.2,48.2,51.6,48.7,45.8,99,85,67,30.39,30.25,8,4,13,0.08
2013-5-20,70.8,60.0,49.6,64.0,57.6,49.3,100,93,77,30.25,29.93,5,2,17,0.25
2013-5-21,50.7,49.7,47.9,50.3,49.1,47.5,99,98,95,30.08,29.96,6,2,11,0.04
2013-5-22,54.8,51.5,48.3,53.4,50.8,48.3,100,97,93,30.01,29.93,6,2,10,0.06
2013-5-23,59.8,56.3,48.2,59.8,55.6,48.2,100,97,92,29.94,29.83,6,3,12,0.09
2013-5-24,62.4,57.6,50.6,62.4,57.4,49.8,100,99,96,29.84,29.66,11,4,18,0.08
2013-5-25,51.2,48.4,45.9,51.1,48.0,45.6,100,99,96,29.76,29.67,14,9,21,0.12
2013-5-26,55.4,49.4,43.4,48.0,44.4,39.6,100,84,63,29.99,29.64,8,4,17,0.12
2013-5-27,67.4,57.1,39.7,44.3,39.5,34.8,94,56,30,30.17,29.98,8,3,17,0.26
2013-5-28,68.4,59.8,42.5,49.3,43.0,37.9,100,57,34,30.25,30.21,9,3,15,0.54
2013-5-29,55.4,54.2,51.9,55.4,54.2,51.9,100,100,100,30.20,30.03,6,2,11,0.18
2013-5-30,84.0,71.3,53.8,69.0,63.0,53.8,100,77,51,30.04,29.97,5,1,10,0.35
2013-5-31,86.2,76.0,54.7,71.6,65.4,54.7,100,72,55,30.06,29.89,7,2,11,0.00
2013-6-1,85.2,76.2,58.8,73.3,66.6,58.8,100,73,58,29.92,29.81,8,3,14,0.00
2013-6-2,75.5,70.8,62.5,68.6,65.3,61.0,98,83,72,29.82,29.69,11,5,21,0.09
2013-6-3,70.8,64.1,58.6,67.4,62.4,58.2,100,94,83,29.83,29.72,8,3,13,0.07
2013-6-4,65.3,60.1,47.5,52.8,46.2,42.2,100,62,46,30.05,29.81,8,4,20,0.00
2013-6-5,69.7,61.8,55.5,51.2,46.3,40.1,83,58,37,30.18,30.09,7,4,13,0.00
2013-6-6,67.9,60.8,49.6,54.9,50.1,40.9,100,71,39,30.23,30.17,8,3,13,0.00
2013-6-7,59.6,55.1,51.5,53.6,50.5,45.5,100,85,62,30.14,29.97,6,3,11,0.46
2013-6-8,69.4,59.9,53.1,62.1,57.0,52.8,100,91,75,29.95,29.64,8,4,17,0.51
2013-6-9,70.6,65.2,57.5,62.3,59.7,56.6,100,83,70,30.11,30.05,6,2,12,0.04
2013-6-10,68.8,61.2,50.6,58.9,55.6,48.7,100,83,50,30.24,30.10,5,2,9,0.03
2013-6-11,55.0,54.4,53.9,54.3,53.9,53.5,100,98,97,29.95,29.57,9,4,18,0.25
2013-6-12,61.3,58.8,55.8,58.7,57.0,55.1,99,94,86,29.76,29.54,8,4,17,0.15
2013-6-13,69.3,60.7,50.8,58.4,54.0,46.6,100,80,48,29.80,29.75,5,2,9,0.01
2013-6-14,73.5,61.9,53.0,59.2,55.1,51.1,100,80,49,29.75,29.66,5,2,11,0.00
2013-6-15,77.1,64.7,48.0,53.4,48.9,43.3,99,61,32,29.89,29.74,6,2,12,0.00
2013-6-16,73.6,65.8,55.2,58.4,56.1,52.8,98,72,51,29.91,29.72,7,2,12,0.00
2013-6-17,78.1,69.2,57.1,65.6,62.8,57.1,100,81,56,29.87,29.76,7,2,14,0.30
2013-6-18,66.2,61.5,54.5,58.4,55.8,51.5,100,82,63,30.00,29.90,3,0,7,0.00
2013-6-19,73.8,64.5,51.9,56.6,50.8,46.1,99,64,39,30.12,29.95,7,3,13,0.00
2013-6-20,74.0,64.2,45.7,57.2,52.2,44.7,100,68,36,30.27,30.19,6,2,11,0.00
2013-6-21,78.2,67.6,51.7,61.3,57.3,51.4,100,72,45,30.24,30.18,6,2,10,0.00
2013-6-22,79.3,68.9,55.7,67.3,63.9,55.7,100,86,60,30.21,30.11,4,1,7,0.04
2013-6-23,73.3,68.4,62.9,67.6,65.5,62.3,100,91,78,30.15,29.97,5,2,9,0.17
2013-6-24,90.5,77.9,64.7,75.4,70.0,64.7,100,79,51,29.94,29.81,5,1,11,0.00
2013-6-25,85.9,78.1,66.4,74.4,70.1,65.5,99,77,60,29.85,29.71,5,2,10,0.20
2013-6-26,76.5,67.6,58.3,72.3,65.9,58.3,100,94,85,29.88,29.72,9,2,16,1.16
2013-6-27,65.5,59.3,55.0,62.3,58.3,54.7,100,97,88,29.90,29.84,6,2,12,0.15
2013-6-28,66.8,61.2,56.8,66.8,61.2,56.5,100,100,99,29.77,29.55,9,3,16,0.53
2013-6-29,69.8,65.3,62.3,68.1,64.8,62.3,100,98,91,29.68,29.56,8,3,17,0.02
2013-6-30,78.4,69.4,62.0,72.6,67.3,62.0,100,93,81,29.94,29.73,6,3,10,0.00
2013-7-1,76.2,70.4,63.0,73.1,69.2,63.0,100,96,86,30.11,29.96,2,0,5,0.20
2013-7-2,65.0,61.4,59.4,65.0,61.4,59.4,100,100,100,30.23,30.12,6,2,10,0.16
2013-7-3,77.5,67.1,58.4,72.2,65.0,58.4,100,93,81,30.22,30.10,5,1,9,0.04
2013-7-4,87.7,80.2,63.5,78.0,73.5,63.5,100,81,67,30.17,30.05,5,2,9,0.00
2013-7-5,88.0,80.4,65.6,77.0,72.9,65.6,100,79,60,30.12,29.99,7,2,15,0.00
2013-7-6,89.0,82.4,69.3,76.5,72.9,66.4,100,74,59,30.03,29.92,3,1,8,0.00
2013-7-7,87.5,80.7,65.4,74.6,69.7,62.7,93,71,50,29.97,29.90,5,1,9,0.00
2013-7-8,73.2,69.7,65.8,71.1,66.1,60.8,99,89,75,30.07,29.94,7,2,10,0.07
2013-7-9,69.5,65.2,61.8,67.5,64.1,61.1,100,96,91,30.14,30.10,4,1,9,0.02
2013-7-10,67.1,64.2,60.9,66.1,63.5,60.9,100,97,90,30.06,29.80,7,2,10,0.05
2013-7-11,80.0,73.1,67.0,73.9,70.5,67.0,100,92,70,29.95,29.78,5,1,8,0.15
2013-7-12,73.9,67.0,62.9,63.0,60.0,58.6,87,78,64,30.16,30.06,7,5,12,0.01
2013-7-21,75.1,70.6,61.4,63.0,59.9,54.6,96,70,52,30.03,29.97,8,3,10,0.00
2013-7-22,72.3,67.2,58.8,66.8,61.1,56.3,100,82,62,30.06,29.96,5,2,9,0.00
2013-7-23,68.9,65.6,61.4,68.5,65.5,61.4,100,100,98,29.83,29.55,4,1,8,1.11
2013-7-24,81.8,71.6,61.1,74.0,66.1,54.3,100,83,67,29.96,29.60,6,2,13,0.01
2013-7-25,71.5,63.4,55.8,62.8,56.8,50.3,98,80,65,30.13,30.02,8,2,16,0.04
2013-7-26,68.8,64.9,61.7,66.1,63.5,60.8,99,95,89,30.06,29.90,9,5,18,0.12
2013-7-27,80.3,73.6,64.3,70.1,65.8,63.3,97,77,64,30.04,29.99,6,2,11,0.00
2013-7-28,71.8,66.9,62.6,68.6,65.6,62.6,100,96,86,30.06,30.02,5,2,10,0.04
2013-7-29,74.9,67.6,62.0,70.1,65.8,62.0,100,94,82,30.09,30.00,5,2,10,0.29
2013-7-30,79.6,71.0,61.3,66.9,63.4,57.6,100,79,49,30.07,30.01,5,1,10,0.01
2013-7-31,78.9,70.2,54.6,64.7,60.9,54.6,100,74,52,30.13,30.05,7,2,11,0.00
2013-8-1,76.8,71.8,61.9,69.2,66.0,61.9,100,83,66,30.03,29.92,7,4,13,0.00
2013-8-2,77.0,67.0,62.8,69.5,65.1,62.4,100,94,72,29.84,29.76,4,1,8,0.91
2013-8-3,75.5,66.9,57.6,68.1,62.8,57.6,100,88,68,29.81,29.73,5,1,8,0.04
2013-8-4,77.2,67.1,54.4,64.1,60.3,54.4,100,80,51,29.84,29.74,4,1,10,0.12
2013-8-5,72.1,63.1,51.6,56.5,52.8,45.9,98,71,51,30.04,29.84,6,2,14,0.00
2013-8-6,75.4,67.6,48.3,60.5,55.4,48.3,100,67,48,30.17,30.08,6,2,11,0.00
2013-8-7,74.1,67.7,51.4,65.4,61.9,51.4,100,83,58,30.20,30.14,6,2,12,0.00
2013-8-8,73.2,67.8,61.3,70.0,66.2,60.7,100,95,87,30.11,30.02,6,3,12,0.19
2013-8-9,70.4,67.9,66.4,70.4,67.8,65.9,100,100,97,29.98,29.73,9,4,21,0.74
2013-8-10,79.3,72.2,58.0,70.2,60.2,50.4,100,69,40,29.99,29.77,5,2,10,0.00
2013-8-11,77.1,68.6,53.4,60.2,57.2,53.4,100,69,49,30.06,29.98,5,2,8,0.00
2013-8-12,78.5,69.0,54.9,64.9,60.7,54.9,100,77,51,30.00,29.91,6,1,10,0.00
2013-8-13,73.1,66.5,54.9,68.7,63.3,54.9,100,90,75,29.88,29.71,7,2,13,0.02
2013-8-14,76.2,68.0,60.8,67.6,60.2,49.9,100,78,48,29.87,29.61,6,2,17,0.00
2013-8-15,75.0,66.8,52.1,60.9,56.1,49.9,95,70,49,30.08,29.97,4,1,7,0.00
2013-8-16,76.2,66.9,54.2,63.7,58.7,54.2,100,77,51,30.18,30.10,6,1,9,0.00
2013-8-17,77.5,68.0,52.1,63.2,58.5,52.1,100,74,49,30.27,30.23,6,2,10,0.00
2013-8-18,76.3,65.9,50.5,63.6,59.6,50.5,100,82,58,30.28,30.06,4,1,7,0.00
2013-8-19,83.6,74.7,56.6,66.1,64.0,56.6,100,71,51,30.00,29.89,4,1,10,0.00
2013-8-20,83.2,75.3,64.0,69.2,65.4,62.0,100,72,56,30.08,30.02,5,1,9,0.00
2013-8-21,76.0,66.5,58.7,68.7,63.7,58.7,100,91,74,30.13,30.00,3,1,7,0.00
2013-8-22,83.3,75.4,61.0,71.8,68.0,61.0,100,79,64,29.96,29.77,6,3,11,0.00
2013-8-23,76.7,69.8,59.5,63.4,57.1,52.5,86,65,46,30.14,29.82,9,4,17,0.00
2013-8-24,77.3,65.2,47.6,56.8,52.1,47.1,100,66,38,30.32,30.23,5,1,9,0.00
2013-8-25,77.7,65.3,48.0,61.1,55.8,47.9,100,74,47,30.37,30.18,6,2,11,0.00
2013-8-26,76.6,68.6,61.2,69.1,65.2,60.6,99,89,76,30.06,29.87,4,1,10,0.12
2013-8-27,83.4,72.9,59.1,71.1,66.8,59.1,100,82,63,29.91,29.84,5,1,7,0.00
2013-8-28,79.8,71.4,61.6,70.6,66.5,61.6,100,85,64,30.00,29.88,6,2,10,0.02
2013-8-29,67.2,63.8,56.1,63.8,60.5,55.1,97,89,83,30.12,30.05,8,3,11,0.01
2013-8-30,76.0,69.7,59.5,68.3,64.7,59.5,100,85,74,29.97,29.79,5,2,11,0.00
2013-8-31,81.9,71.7,64.4,72.2,68.3,63.8,99,90,68,29.83,29.78,5,2,10,0.02
2013-9-1,81.3,73.4,67.1,73.8,70.0,67.1,100,90,71,29.92,29.77,5,1,9,0.00
2013-9-2,67.7,65.2,62.0,67.7,65.2,62.0,100,100,100,29.92,29.75,13,3,19,2.54
2013-9-3,76.5,70.0,65.6,71.5,68.4,65.6,100,95,81,29.78,29.71,5,1,8,0.08
2013-9-4,79.0,70.6,57.2,65.8,61.7,57.2,100,75,53,29.88,29.80,5,2,9,0.00
2013-9-5,66.0,58.3,48.8,57.4,51.3,45.5,98,79,53,30.13,29.92,7,2,13,0.27
2013-9-6,66.4,56.9,41.5,53.8,47.0,39.1,100,73,41,30.23,30.06,6,2,11,0.00
2013-9-7,72.2,62.6,47.5,62.7,56.2,47.4,100,81,58,30.03,29.81,4,1,9,0.00
2013-9-8,65.5,59.3,48.8,59.6,50.5,41.3,99,75,49,30.06,29.71,8,2,15,0.17
2013-9-9,63.2,58.4,42.2,55.5,49.8,41.7,98,74,53,30.22,30.12,6,3,12,0.00
2013-9-10,64.0,62.0,56.2,62.5,60.0,53.7,100,93,85,30.12,30.03,6,2,11,0.00
2013-9-11,84.3,73.7,62.3,75.9,70.1,62.3,100,89,74,30.04,29.89,5,2,10,0.00
2013-9-12,73.5,67.8,64.6,70.1,67.2,64.6,100,98,88,29.93,29.68,6,2,8,0.30
2013-9-13,64.2,63.9,63.8,64.2,63.9,63.8,100,100,100,29.65,29.63,0,0,1,0.03
2013-9-15,62.5,58.2,55.2,56.6,54.8,52.6,99,89,73,30.06,30.02,4,1,6,0.00
2013-9-16,63.9,56.2,46.1,58.2,51.5,39.6,100,85,70,30.25,30.01,9,2,14,0.01
2013-9-17,64.8,53.3,36.9,51.9,44.1,35.9,98,73,47,30.42,30.30,8,2,13,0.00
2013-9-18,70.3,60.4,40.2,55.6,49.5,40.2,100,70,42,30.29,30.11,4,1,8,0.00
2013-9-19,73.3,60.5,41.4,57.6,51.6,41.4,100,75,50,30.14,30.03,4,1,8,0.36
2013-9-20,74.7,60.3,43.8,59.5,53.2,43.8,100,80,53,30.13,30.04,5,1,9,0.00
2013-9-21,66.6,62.3,56.4,63.3,60.2,56.4,100,93,86,30.00,29.78,7,5,17,0.00
2013-9-22,69.4,62.7,50.6,66.0,58.5,47.8,100,87,63,29.77,29.58,11,3,22,0.32
2013-9-23,56.9,51.9,44.8,45.4,43.2,41.1,87,72,64,29.95,29.81,8,4,19,0.00
2013-9-24,55.3,51.6,46.3,45.6,44.1,41.8,90,76,67,29.91,29.84,7,2,15,0.00
2013-9-25,62.0,56.2,48.2,52.2,48.0,45.2,91,74,61,29.98,29.88,8,3,14,0.00
2013-9-26,63.5,58.2,49.9,53.2,51.1,48.0,93,77,67,30.14,30.02,9,4,14,0.00
2013-9-27,69.5,60.8,49.6,57.8,53.8,49.3,99,79,59,30.25,30.19,7,3,11,0.00
2013-9-28,70.8,58.0,45.2,57.6,52.1,45.1,100,83,54,30.35,30.28,6,2,9,0.00
2013-9-29,64.3,54.1,42.8,57.5,50.1,42.4,100,88,59,30.26,30.14,4,1,7,0.01
2013-9-30,65.9,54.5,43.3,56.1,51.0,43.3,100,89,65,30.14,29.99,3,1,5,0.00
2013-10-1,73.7,60.8,41.9,59.9,53.7,41.9,100,80,50,29.96,29.83,6,2,10,0.00
2013-10-2,79.0,67.5,49.0,63.7,58.6,49.0,100,75,53,29.89,29.75,4,1,12,0.00
2013-10-3,74.4,61.7,45.9,56.7,51.0,45.6,100,72,44,30.07,29.99,5,1,11,0.00
2013-10-4,70.4,59.8,43.5,61.0,52.8,43.5,100,79,56,30.10,30.03,4,0,7,0.00
2013-10-5,62.2,55.8,45.9,50.3,47.9,45.4,98,76,58,30.17,30.10,3,0,5,0.00
2013-10-6,54.9,51.1,47.4,49.4,44.1,39.5,98,78,59,30.30,30.23,6,2,11,0.00
2013-10-7,68.4,62.2,54.4,66.9,61.9,54.4,100,99,95,30.11,29.82,12,6,25,0.05
2013-10-8,61.3,54.1,39.4,45.5,42.9,38.6,97,67,50,30.39,30.12,6,2,11,0.00
2013-10-9,60.9,49.9,35.3,47.5,42.4,35.3,100,78,50,30.51,30.38,5,1,8,0.00
2013-10-10,61.8,50.8,33.9,50.8,45.3,33.9,100,83,58,30.36,30.23,4,1,6,0.00
2013-10-11,66.7,57.5,47.1,59.8,52.8,47.1,100,85,62,30.19,30.13,5,1,7,0.00
2013-10-12,58.9,53.7,48.9,54.1,50.5,47.6,100,89,76,30.43,30.25,6,2,9,0.01
2013-10-13,58.0,51.6,39.8,50.2,46.8,39.3,98,84,64,30.48,30.42,4,1,7,0.00
2013-10-14,59.1,50.7,36.1,51.2,46.2,36.1,100,85,65,30.38,30.26,6,2,10,0.00
2013-10-15,64.8,58.1,51.7,56.0,53.2,51.1,99,84,68,30.30,30.22,5,2,7,0.00
2013-10-16,59.2,57.0,53.8,55.9,54.5,51.9,99,92,79,30.17,29.92,7,1,10,0.00
2013-10-17,67.4,59.2,49.4,60.3,55.9,49.1,100,90,75,29.85,29.74,4,1,6,0.00
2013-10-18,67.3,59.6,48.8,58.9,52.7,46.0,100,80,52,29.83,29.59,6,2,10,0.19
2013-10-19,61.6,55.5,39.1,51.3,47.4,38.7,99,75,56,29.94,29.78,6,2,7,0.00
2013-10-20,61.4,55.2,44.7,53.5,40.9,34.1,96,61,38,29.95,29.67,6,2,11,0.01
2013-10-21,60.3,51.0,33.9,49.7,43.9,33.1,99,79,51,30.10,30.01,6,2,9,0.00
2013-10-22,60.4,55.4,46.9,54.8,52.4,45.8,98,90,78,29.90,29.70,10,3,11,0.23
2013-10-23,52.9,45.3,32.9,45.3,38.9,32.9,100,80,59,29.77,29.60,3,1,6,0.00
2013-10-24,51.7,45.2,31.8,36.5,32.8,29.0,99,64,44,29.81,29.67,7,3,14,0.00
2013-10-25,49.1,42.5,31.4,37.3,32.0,27.4,95,68,52,30.10,29.92,6,2,11,0.00
2013-10-26,50.8,44.8,25.4,39.1,34.9,24.7,99,70,53,30.12,29.87,8,3,14,0.00
2013-10-27,55.5,48.9,40.9,42.8,37.4,30.8,91,65,54,30.00,29.78,5,2,10,0.06
2013-10-28,54.9,45.5,36.7,39.9,33.6,25.7,88,64,53,30.35,30.01,7,4,12,0.00
2013-10-29,47.9,36.0,22.7,30.7,25.7,21.0,98,70,35,30.47,30.37,2,0,5,0.00
2013-10-30,49.6,37.6,27.4,34.9,28.9,25.4,99,74,40,30.30,30.18,4,1,6,0.01
2013-10-31,57.3,45.1,25.6,57.2,44.3,25.1,100,97,90,30.24,29.84,9,2,13,0.25
2013-11-1,65.1,59.7,56.7,60.7,57.1,53.3,100,91,83,29.60,29.36,14,7,19,0.34
2013-11-2,63.6,54.3,37.9,49.6,47.0,37.6,100,78,53,29.73,29.57,4,1,7,0.00
2013-11-3,42.8,38.5,32.3,32.1,25.0,21.8,77,59,46,30.38,30.01,12,6,18,0.00
2013-11-4,40.3,32.4,22.6,22.8,21.0,18.6,94,65,43,30.72,30.60,10,3,14,0.00
2013-11-5,46.2,37.4,23.7,35.1,31.7,23.2,98,81,62,30.73,30.53,7,2,10,0.00
2013-11-6,53.0,47.2,30.2,50.0,44.2,30.0,100,89,77,30.43,30.03,11,5,15,0.00
2013-11-7,57.4,51.9,41.0,56.0,48.6,32.5,98,89,68,29.83,29.63,8,4,12,0.05
2013-11-8,46.0,39.9,31.1,29.5,26.8,24.8,83,60,46,29.98,29.81,7,3,10,0.00
2013-11-9,45.0,37.5,28.0,27.1,24.4,22.2,89,61,41,30.13,30.06,6,2,11,0.00
2013-11-10,42.9,39.2,33.1,40.7,37.9,32.6,100,95,89,29.92,29.72,2,0,3,0.02
2013-11-11,46.7,40.4,35.5,33.6,32.0,30.4,88,72,56,30.03,29.86,5,2,14,0.00
2013-11-12,36.5,31.4,28.1,30.4,19.6,16.7,79,61,54,30.11,29.93,6,3,11,0.00
2013-11-13,34.5,28.5,21.6,17.4,15.2,13.0,79,58,45,30.24,30.13,7,2,10,0.00
2013-11-14,47.9,37.2,26.6,29.5,26.0,22.2,94,66,44,30.08,29.99,4,1,7,0.00
2013-11-15,50.9,38.8,23.8,35.3,29.3,23.1,99,73,38,30.16,30.10,5,1,9,0.00
2013-11-16,51.5,39.2,30.2,41.6,34.5,29.5,100,85,62,30.35,30.25,6,1,6,0.00
2013-11-17,53.2,47.6,39.2,52.9,45.6,38.9,100,93,82,30.36,29.95,10,3,16,0.05
2013-11-18,62.3,54.9,42.3,59.4,49.2,39.5,100,83,54,29.62,29.48,17,5,19,0.20
2013-11-19,39.9,35.5,31.8,28.7,20.8,18.3,65,55,49,30.20,29.72,9,5,17,0.00
2013-11-20,39.4,30.9,20.6,18.7,16.1,13.1,86,56,34,30.64,30.40,8,2,11,0.00
2013-11-21,44.2,32.8,17.9,27.4,22.7,15.0,96,70,31,30.64,30.38,5,1,7,0.00
2013-11-22,37.7,34.7,28.7,35.6,32.1,24.8,99,90,73,30.25,29.82,3,0,4,0.02
2013-11-23,40.5,33.9,23.9,31.5,20.8,16.0,95,60,38,29.82,29.68,9,4,15,0.00
2013-11-24,24.5,22.3,19.9,10.6,6.5,3.2,63,50,45,29.95,29.73,11,8,32,0.00
2013-11-25,30.6,22.5,17.1,18.7,5.8,0.7,76,49,33,30.33,30.17,7,3,12,0.00
2013-11-26,32.8,30.5,26.7,30.8,28.8,24.8,98,94,86,30.33,30.17,5,1,9,0.06
2013-11-27,59.1,53.3,40.0,59.1,53.0,39.2,100,99,96,29.72,29.15,18,10,28,1.93
2013-11-28,33.0,28.0,22.2,23.3,13.4,8.2,73,54,41,30.37,29.71,8,4,17,0.00
2013-11-29,26.2,22.1,15.8,13.1,10.1,6.3,87,61,44,30.74,30.48,7,2,10,0.00
2013-11-30,28.8,23.0,9.6,21.4,14.3,7.1,94,71,40,30.83,30.50,5,1,8,0.00
2013-12-1,33.2,32.0,29.4,33.2,31.4,27.1,100,98,91,30.31,30.11,7,2,8,0.35
2013-12-2,36.7,34.4,33.8,36.7,34.4,33.8,100,100,100,30.01,29.93,9,5,11,0.56
2013-12-3,41.8,36.3,29.5,39.7,35.4,28.8,100,97,91,29.93,29.86,7,2,11,0.00
2013-12-4,41.9,33.4,24.4,31.2,27.6,23.8,98,80,63,30.21,29.97,6,1,8,0.00
2013-12-5,47.1,36.4,24.2,47.1,36.1,23.7,100,99,96,30.28,29.93,4,1,6,0.01
2013-12-6,43.7,40.7,37.1,43.2,39.4,31.4,100,95,79,30.12,29.88,5,0,5,0.08
2013-12-7,37.4,32.3,25.4,31.5,19.5,10.8,97,60,47,30.40,30.13,7,3,13,0.01
2013-12-8,28.4,24.9,21.6,19.0,12.4,9.0,85,60,44,30.59,30.52,7,2,9,0.00
2013-12-9,32.0,26.6,23.0,31.2,24.0,14.9,98,91,66,30.41,29.88,6,3,8,0.00
2013-12-10,31.6,26.9,21.3,31.4,26.4,19.3,99,98,92,29.90,29.73,3,0,6,0.00
2013-12-11,29.2,23.9,17.1,22.4,19.1,14.9,95,82,69,30.14,30.06,6,2,11,0.03
2013-12-12,17.0,11.9,4.1,9.0,2.4,-2.0,91,67,44,30.26,30.07,7,2,10,0.00
2013-12-13,23.6,16.6,7.2,13.8,5.5,-3.4,78,62,51,30.37,29.93,7,4,12,0.00
2013-12-14,12.2,8.9,1.3,8.2,-3.7,-7.7,90,57,41,30.65,30.47,7,3,9,0.00
2013-12-15,17.1,12.7,8.7,13.9,10.6,6.9,95,91,85,29.78,29.42,16,7,25,0.00
2013-12-16,25.1,16.5,0.6,17.0,4.5,-2.4,95,61,40,30.20,29.79,8,3,15,0.00
2013-12-17,12.8,6.3,-10.8,8.9,0.4,-13.7,93,78,57,30.33,30.04,7,3,11,0.00
2013-12-18,27.7,17.9,6.3,24.5,16.1,4.5,96,93,87,30.04,29.85,9,3,14,0.03
2013-12-19,31.5,24.1,15.1,27.4,21.8,13.9,97,91,81,30.08,29.93,5,1,7,0.00
2013-12-20,37.0,31.6,23.1,35.1,30.7,22.6,99,96,89,30.13,29.91,3,0,4,0.11
2013-12-21,33.1,30.9,27.4,32.8,30.5,27.1,100,98,95,29.97,29.84,6,2,8,0.13
2013-12-22,30.8,27.5,25.5,30.6,27.2,25.0,99,98,97,30.09,29.89,9,4,14,0.29
2013-12-23,32.2,30.6,26.0,32.2,30.5,25.8,100,100,99,30.13,29.98,4,1,6,0.00
2013-12-24,26.7,22.4,13.5,26.0,20.4,11.6,98,92,88,30.18,30.07,0,0,1,0.00
2013-12-25,17.4,11.2,5.1,14.2,8.2,2.7,94,88,83,30.57,30.35,0,0,1,0.00
2013-12-26,24.3,19.6,12.3,23.8,18.7,10.9,98,96,94,30.42,30.09,0,0,1,0.00
2013-12-27,31.8,22.8,9.9,29.9,21.6,9.0,99,95,92,30.22,30.15,0,0,1,0.11
2013-12-28,34.6,26.7,16.9,31.6,25.2,15.8,100,94,88,30.10,29.95,2,0,3,0.05
2013-12-29,32.8,27.8,15.8,32.8,27.6,14.9,100,99,96,30.03,29.58,8,2,11,0.36
2013-12-30,31.6,19.8,5.9,30.8,18.2,2.3,99,93,85,30.19,29.63,6,2,8,0.06
2013-12-31,8.6,2.0,-6.6,5.6,-0.5,-9.0,92,89,81,30.19,30.06,7,1,8,0.00
2014-1-1,20.7,6.5,-12.1,15.6,3.2,-14.9,94,87,73,30.43,30.25,6,1,10,0.00
2014-1-2,-2.0,-4.2,-7.2,-5.0,-7.0,-9.8,89,88,86,30.47,30.07,14,9,19,0.00